TimeCST,TemperatureF,Dew PointF,Humidity,Sea Level PressureIn,VisibilityMPH,Wind Direction,Wind SpeedMPH,Gust SpeedMPH,PrecipitationIn,Events,Conditions,WindDirDegrees,DateUTC
12:15 AM,-7.6,-13.0,77,30.25,10.0,Calm,Calm,-,N/A,,Clear,0,2013-01-18 06:15:00
12:35 AM,-7.6,-13.0,77,30.26,10.0,Calm,Calm,-,N/A,,Clear,0,2013-01-18 06:35:00
12:55 AM,-7.6,-11.2,84,30.26,10.0,Calm,Calm,-,N/A,,Clear,0,2013-01-18 06:55:00
1:15 AM,-5.8,-9.4,84,30.26,10.0,Calm,Calm,-,N/A,,Clear,0,2013-01-18 07:15:00
1:35 AM,-4.0,-7.6,85,30.26,10.0,Calm,Calm,-,N/A,,Clear,0,2013-01-18 07:35:00
1:55 AM,-0.4,-4.0,85,30.26,10.0,Calm,Calm,-,N/A,,Scattered Clouds,0,2013-01-18 07:55:00
2:15 AM,1.4,-2.2,85,30.26,10.0,Calm,Calm,-,N/A,,Mostly Cloudy,0,2013-01-18 08:15:00
2:35 AM,3.2,-0.4,85,30.25,10.0,Calm,Calm,-,N/A,,Overcast,0,2013-01-18 08:35:00
2:55 AM,3.2,-0.4,85,30.24,10.0,Calm,Calm,-,N/A,,Mostly Cloudy,0,2013-01-18 08:55:00
3:15 AM,3.2,-0.4,85,30.23,10.0,Calm,Calm,-,N/A,,Mostly Cloudy,0,2013-01-18 09:15:00
3:35 AM,3.2,-0.4,85,30.21,10.0,Calm,Calm,-,N/A,,Overcast,0,2013-01-18 09:35:00
3:55 AM,5.0,1.4,85,30.19,10.0,Calm,Calm,-,N/A,,Overcast,0,2013-01-18 09:55:00
4:15 AM,5.0,1.4,85,30.18,10.0,Calm,Calm,-,N/A,,Overcast,0,2013-01-18 10:15:00
4:35 AM,5.0,1.4,85,30.17,10.0,South,3.5,-,N/A,,Overcast,170,2013-01-18 10:35:00
4:55 AM,5.0,1.4,85,30.16,4.0,SSE,3.5,-,N/A,Snow,Light Snow,160,2013-01-18 10:55:00
5:15 AM,6.8,3.2,85,30.15,2.0,SSE,4.6,-,N/A,Snow,Light Snow,160,2013-01-18 11:15:00
5:35 AM,6.8,3.2,85,30.15,1.8,South,4.6,-,N/A,Snow,Light Snow,170,2013-01-18 11:35:00
5:55 AM,8.6,3.2,79,30.12,1.5,SSE,5.8,-,N/A,Snow,Light Snow,160,2013-01-18 11:55:00
6:15 AM,8.6,5.0,85,30.11,1.8,SSE,5.8,-,N/A,Snow,Light Snow,150,2013-01-18 12:15:00
6:35 AM,8.6,5.0,85,30.09,1.8,SSE,5.8,-,N/A,Snow,Light Snow,150,2013-01-18 12:35:00
6:55 AM,8.6,5.0,85,30.08,1.2,SSE,4.6,-,N/A,Snow,Light Snow,160,2013-01-18 12:55:00
7:15 AM,8.6,5.0,85,30.07,1.5,SSE,6.9,-,0.01,Snow,Light Snow,150,2013-01-18 13:15:00
7:35 AM,8.6,5.0,85,30.04,1.8,SSE,5.8,-,0.01,Snow,Light Snow,150,2013-01-18 13:35:00
7:55 AM,10.4,5.0,79,30.02,1.5,SE,6.9,-,0.01,Snow,Light Snow,140,2013-01-18 13:55:00
8:15 AM,10.4,5.0,79,29.99,1.2,SSE,5.8,-,N/A,Snow,Light Snow,150,2013-01-18 14:15:00
8:35 AM,10.4,6.8,85,29.97,2.5,SE,5.8,-,N/A,Snow,Light Snow,140,2013-01-18 14:35:00
8:55 AM,12.2,6.8,79,29.97,5.0,SSE,4.6,-,N/A,Snow,Light Snow,150,2013-01-18 14:55:00
9:15 AM,12.2,8.6,85,29.96,2.5,South,4.6,-,N/A,Snow,Light Snow,170,2013-01-18 15:15:00
9:35 AM,12.2,8.6,85,29.95,3.0,SSE,4.6,-,N/A,Snow,Light Snow,160,2013-01-18 15:35:00
9:55 AM,12.2,8.6,85,29.93,3.0,SSE,4.6,-,N/A,Snow,Light Snow,150,2013-01-18 15:55:00
10:15 AM,14.0,10.4,86,29.92,2.0,South,5.8,-,N/A,Snow,Light Snow,170,2013-01-18 16:15:00
10:35 AM,15.8,12.2,86,29.90,1.5,South,4.6,-,N/A,Snow,Light Snow,170,2013-01-18 16:35:00
10:55 AM,17.6,12.2,79,29.87,4.0,South,8.1,-,N/A,Snow,Light Snow,170,2013-01-18 16:55:00
11:15 AM,19.4,14.0,80,29.85,7.0,South,6.9,-,N/A,,Overcast,180,2013-01-18 17:15:00
11:35 AM,19.4,14.0,80,29.84,10.0,South,4.6,-,N/A,,Overcast,180,2013-01-18 17:35:00
11:55 AM,19.4,14.0,80,29.82,10.0,South,3.5,-,N/A,,Overcast,190,2013-01-18 17:55:00
12:15 PM,21.2,15.8,80,29.80,10.0,Calm,Calm,-,N/A,,Overcast,0,2013-01-18 18:15:00
12:35 PM,23.0,17.6,80,29.79,10.0,South,3.5,-,N/A,,Mostly Cloudy,180,2013-01-18 18:35:00
12:55 PM,24.8,19.4,80,29.77,10.0,South,3.5,-,0.01,,Mostly Cloudy,180,2013-01-18 18:55:00
1:15 PM,26.6,19.4,74,29.75,10.0,South,4.6,-,N/A,,Mostly Cloudy,180,2013-01-18 19:15:00
1:35 PM,28.4,21.2,74,29.75,10.0,SSW,4.6,-,N/A,,Mostly Cloudy,200,2013-01-18 19:35:00
1:55 PM,30.2,21.2,69,29.74,10.0,South,5.8,-,N/A,,Mostly Cloudy,180,2013-01-18 19:55:00
2:15 PM,32.0,23.0,69,29.73,10.0,SW,5.8,-,0.01,,Scattered Clouds,220,2013-01-18 20:15:00
2:35 PM,32.0,23.0,69,29.73,10.0,Calm,Calm,-,0.01,,Mostly Cloudy,0,2013-01-18 20:35:00
2:55 PM,32.0,23.0,69,29.72,10.0,Calm,Calm,-,0.01,,Overcast,0,2013-01-18 20:55:00
3:15 PM,32.0,23.0,69,29.71,10.0,SSW,3.5,-,N/A,,Mostly Cloudy,210,2013-01-18 21:15:00
3:35 PM,32.0,24.8,75,29.71,10.0,Calm,Calm,-,N/A,,Overcast,0,2013-01-18 21:35:00
3:55 PM,32.0,24.8,75,29.72,10.0,Calm,Calm,-,N/A,,Overcast,0,2013-01-18 21:55:00
4:15 PM,32.0,24.8,75,29.70,10.0,Calm,Calm,-,0.01,,Overcast,0,2013-01-18 22:15:00
4:35 PM,32.0,24.8,75,29.70,10.0,Calm,Calm,-,0.01,,Overcast,0,2013-01-18 22:35:00
4:55 PM,30.2,23.0,75,29.71,10.0,Calm,Calm,-,0.01,,Overcast,0,2013-01-18 22:55:00
5:15 PM,30.2,23.0,75,29.71,10.0,Calm,Calm,-,N/A,,Overcast,0,2013-01-18 23:15:00
5:35 PM,28.4,23.0,80,29.71,10.0,Calm,Calm,-,N/A,,Mostly Cloudy,0,2013-01-18 23:35:00
5:55 PM,28.4,23.0,80,29.71,10.0,Calm,Calm,-,N/A,,Scattered Clouds,0,2013-01-18 23:55:00
6:15 PM,26.6,23.0,86,29.70,10.0,Calm,Calm,-,N/A,,Mostly Cloudy,0,2013-01-19 00:15:00
6:35 PM,28.4,23.0,80,29.68,10.0,Calm,Calm,-,N/A,,Overcast,0,2013-01-19 00:35:00
6:55 PM,28.4,23.0,80,29.69,10.0,Calm,Calm,-,N/A,,Overcast,0,2013-01-19 00:55:00
7:15 PM,28.4,23.0,80,29.69,10.0,Calm,Calm,-,N/A,,Overcast,0,2013-01-19 01:15:00
7:35 PM,28.4,23.0,80,29.70,10.0,Calm,Calm,-,N/A,,Overcast,0,2013-01-19 01:35:00
7:55 PM,28.4,23.0,80,29.70,10.0,Calm,Calm,-,N/A,,Overcast,0,2013-01-19 01:55:00
8:15 PM,28.4,23.0,80,29.69,10.0,Calm,Calm,-,N/A,,Overcast,0,2013-01-19 02:15:00
8:35 PM,26.6,23.0,86,29.69,10.0,Calm,Calm,-,N/A,,Scattered Clouds,0,2013-01-19 02:35:00
8:55 PM,24.8,23.0,93,29.69,10.0,Calm,Calm,-,N/A,,Clear,0,2013-01-19 02:55:00
9:15 PM,24.8,23.0,93,29.70,10.0,Calm,Calm,-,N/A,,Clear,0,2013-01-19 03:15:00
9:35 PM,23.0,21.2,93,29.69,7.0,Calm,Calm,-,N/A,,Clear,0,2013-01-19 03:35:00
9:55 PM,23.0,21.2,93,29.70,7.0,West,4.6,-,N/A,,Clear,280,2013-01-19 03:55:00
10:15 PM,26.6,24.8,93,29.70,10.0,West,5.8,-,N/A,,Clear,280,2013-01-19 04:15:00
10:35 PM,26.6,24.8,93,29.70,7.0,West,3.5,-,N/A,,Clear,270,2013-01-19 04:35:00
10:55 PM,26.6,24.8,93,29.69,7.0,Calm,Calm,-,N/A,,Clear,0,2013-01-19 04:55:00
11:15 PM,26.6,23.0,86,29.70,7.0,Calm,Calm,-,N/A,,Clear,0,2013-01-19 05:15:00
11:35 PM,26.6,23.0,86,29.70,7.0,West,5.8,-,N/A,,Clear,270,2013-01-19 05:35:00
11:55 PM,26.6,24.8,93,29.70,10.0,West,5.8,-,N/A,,Mostly Cloudy,270,2013-01-19 05:55:00